QTR1809 LFPG-EDDH

Flight info

Callsign QTR1809
Flight time N/A
Altitude 38000
Route NURMO DCT CMB DCT VEKIN DCT ADUTO N873 FERDI/N0454F400 N873 VICOT/N0453F390 DCT PABCO M105 RIBSO RIBSO3D
Aircraft B38M/M-SDE1FGHILORVWXY/HB1

Departure

Time 2026-05-08 20:47
Airport Charles de Gaulle International Airport (LFPG)

Arrival

Time N/A
Airport Hamburg Helmut Schmidt Airport (EDDH)
Time Latitude Longitude Altitude Speed Heading
2026-05-08 20:20 49.01562 2.51179 362 ft 0 kts 356°
2026-05-08 20:35 49.01546 2.51180 359 ft 3 kts 356°
2026-05-08 20:35 49.01528 2.51182 355 ft 3 kts 356°
2026-05-08 20:35 49.01511 2.51184 359 ft 2 kts 356°
2026-05-08 20:36 49.01493 2.51186 355 ft 3 kts 13°
2026-05-08 20:36 49.01479 2.51172 363 ft 3 kts 78°
2026-05-08 20:36 49.01478 2.51167 363 ft 0 kts 83°
2026-05-08 20:38 49.01478 2.51168 355 ft 1 kts 84°
2026-05-08 20:38 49.01477 2.51187 360 ft 4 kts 92°
2026-05-08 20:38 49.01480 2.51243 355 ft 8 kts 73°
2026-05-08 20:39 49.01531 2.51298 355 ft 10 kts
2026-05-08 20:39 49.01615 2.51290 363 ft 15 kts 355°
2026-05-08 20:39 49.01736 2.51274 359 ft 19 kts 355°
2026-05-08 20:39 49.01866 2.51260 364 ft 19 kts 356°
2026-05-08 20:40 49.01957 2.51257 361 ft 0 kts 11°
2026-05-08 20:42 49.01961 2.51259 355 ft 2 kts 13°
2026-05-08 20:42 49.01979 2.51268 359 ft 3 kts 21°
2026-05-08 20:42 49.01997 2.51284 360 ft 4 kts 33°
2026-05-08 20:42 49.02022 2.51324 359 ft 8 kts 51°
2026-05-08 20:43 49.02065 2.51412 358 ft 11 kts 59°
2026-05-08 20:43 49.02072 2.51450 360 ft 0 kts 88°
2026-05-08 20:43 49.02073 2.51457 360 ft 2 kts 86°
2026-05-08 20:46 49.02073 2.51459 360 ft 1 kts 86°
2026-05-08 20:46 49.02087 2.51727 353 ft 67 kts 85°
2026-05-08 20:46 49.02149 2.52878 364 ft 146 kts 85°
2026-05-08 20:46 49.02277 2.54647 852 ft 181 kts 81°
2026-05-08 20:47 49.02477 2.56826 1426 ft 238 kts 81°
2026-05-08 20:47 49.02601 2.59253 2961 ft 219 kts 89°
2026-05-08 20:47 49.02624 2.61550 3985 ft 216 kts 88°
2026-05-08 20:47 49.02713 2.63831 4853 ft 218 kts 86°
2026-05-08 20:48 49.02848 2.66174 5620 ft 224 kts 86°
2026-05-08 20:48 49.02982 2.68571 6360 ft 230 kts 86°
2026-05-08 20:48 49.03111 2.71035 7077 ft 235 kts 86°
2026-05-08 20:48 49.03535 2.73442 7802 ft 240 kts 57°
2026-05-08 20:49 49.04749 2.75169 8528 ft 243 kts 23°
2026-05-08 20:49 49.06389 2.75685 9272 ft 243 kts 360°
2026-05-08 20:49 49.08095 2.75694 9916 ft 249 kts 356°
2026-05-08 20:49 49.09824 2.75643 10067 ft 252 kts 356°
2026-05-08 20:50 49.11564 2.75628 10064 ft 251 kts 358°
2026-05-08 20:50 49.13393 2.75633 10091 ft 279 kts 358°
2026-05-08 20:50 49.15393 2.75633 10086 ft 289 kts 358°
2026-05-08 20:50 49.17419 2.75632 10087 ft 291 kts 358°
2026-05-08 20:51 49.19445 2.75629 10087 ft 292 kts 358°
2026-05-08 20:51 49.21485 2.75625 10122 ft 294 kts 358°
2026-05-08 20:51 49.22848 2.75622 10285 ft 295 kts 358°
2026-05-08 20:51 49.25601 2.75618 10615 ft 297 kts 358°
2026-05-08 20:52 49.27670 2.75615 10863 ft 299 kts 358°
2026-05-08 20:52 49.29055 2.75613 11029 ft 300 kts 358°
2026-05-08 20:52 49.31149 2.75610 11278 ft 301 kts 358°
2026-05-08 20:52 49.33267 2.75606 11652 ft 310 kts 358°
2026-05-08 20:53 49.35472 2.75601 12183 ft 323 kts 358°
2026-05-08 20:53 49.37754 2.75598 12720 ft 334 kts 359°
2026-05-08 20:53 49.40097 2.75595 13243 ft 345 kts 359°
2026-05-08 20:53 49.42588 2.75590 13429 ft 367 kts 359°
2026-05-08 20:54 49.45202 2.75585 13812 ft 381 kts 359°
2026-05-08 20:54 49.47884 2.75583 14319 ft 389 kts 359°
2026-05-08 20:54 49.50609 2.75579 14901 ft 395 kts 359°
2026-05-08 20:54 49.53364 2.75575 15522 ft 399 kts 359°
2026-05-08 20:55 49.56161 2.75570 16141 ft 403 kts 360°
2026-05-08 20:55 49.58979 2.75566 16773 ft 407 kts 360°
2026-05-08 20:55 49.61831 2.75561 17414 ft 410 kts 360°
2026-05-08 20:55 49.64666 2.75557 18023 ft 414 kts
2026-05-08 20:56 49.67562 2.75552 18614 ft 417 kts
2026-05-08 20:56 49.70477 2.75547 19160 ft 419 kts
2026-05-08 20:56 49.73395 2.75542 19729 ft 421 kts
2026-05-08 20:56 49.76331 2.75538 20308 ft 423 kts 360°
2026-05-08 20:57 49.79287 2.75533 20887 ft 424 kts 360°
2026-05-08 20:57 49.82225 2.76091 21464 ft 425 kts 13°
2026-05-08 20:57 49.85112 2.77141 22018 ft 427 kts 20°
2026-05-08 20:57 49.87731 2.79301 22564 ft 430 kts 32°
2026-05-08 20:58 49.90134 2.82028 23100 ft 433 kts 37°
2026-05-08 20:58 49.92387 2.85125 23627 ft 437 kts 44°
2026-05-08 20:58 49.94403 2.88694 24102 ft 441 kts 49°
2026-05-08 20:58 49.96306 2.92466 24518 ft 444 kts 50°
2026-05-08 20:59 49.98157 2.96317 24932 ft 447 kts 51°
2026-05-08 20:59 50.00003 3.00249 25339 ft 450 kts 51°
2026-05-08 20:59 50.01842 3.04214 25736 ft 453 kts 52°
2026-05-08 20:59 50.03679 3.08211 26060 ft 454 kts 52°
2026-05-08 21:00 50.05493 3.12221 26097 ft 454 kts 53°
2026-05-08 21:00 50.07253 3.16295 26104 ft 453 kts 53°
2026-05-08 21:00 50.09080 3.20289 26362 ft 454 kts 49°
2026-05-08 21:00 50.11125 3.23960 26756 ft 454 kts 43°
2026-05-08 21:01 50.13330 3.27410 27133 ft 456 kts 41°
2026-05-08 21:01 50.15623 3.30973 27521 ft 460 kts 43°
2026-05-08 21:01 50.17764 3.34698 27889 ft 464 kts 46°
2026-05-08 21:01 50.19848 3.38465 28240 ft 466 kts 45°
2026-05-08 21:02 50.22071 3.42265 28609 ft 467 kts 43°
2026-05-08 21:02 50.24297 3.45955 29032 ft 468 kts 43°
2026-05-08 21:02 50.26479 3.49677 29565 ft 467 kts 44°
2026-05-08 21:02 50.28668 3.53505 30085 ft 466 kts 44°
2026-05-08 21:03 50.30834 3.57257 30522 ft 465 kts 43°
2026-05-08 21:03 50.33024 3.60996 30951 ft 463 kts 43°
2026-05-08 21:03 50.35058 3.64485 31360 ft 462 kts 43°
2026-05-08 21:03 50.37224 3.68241 31778 ft 461 kts 43°
2026-05-08 21:04 50.39415 3.71872 32244 ft 454 kts 35°
2026-05-08 21:04 50.42018 3.74254 32719 ft 440 kts 15°
2026-05-08 21:04 50.47942 3.74306 33643 ft 425 kts 346°
2026-05-08 21:04 50.51621 3.72759 34171 ft 422 kts 342°
2026-05-08 21:05 50.54452 3.71380 34484 ft 421 kts 341°
2026-05-08 21:05 50.57194 3.69992 34765 ft 421 kts 341°
2026-05-08 21:05 50.60014 3.68542 35054 ft 422 kts 341°
2026-05-08 21:05 50.62807 3.67096 35318 ft 423 kts 341°
2026-05-08 21:06 50.65577 3.65593 35568 ft 424 kts 339°
2026-05-08 21:06 50.71041 3.62801 36029 ft 427 kts 344°
2026-05-08 21:06 50.76706 3.61097 36498 ft 432 kts 352°
2026-05-08 21:06 50.81612 3.60712 36871 ft 437 kts 359°
2026-05-08 21:07 50.84662 3.60984 37093 ft 440 kts
2026-05-08 21:07 50.87710 3.61674 37294 ft 444 kts
2026-05-08 21:07 50.90717 3.62882 37506 ft 449 kts 16°
2026-05-08 21:07 50.93442 3.64668 37613 ft 454 kts 24°
2026-05-08 21:08 50.96340 3.67054 37826 ft 457 kts 25°
2026-05-08 21:08 50.99140 3.69454 38021 ft 458 kts 24°
2026-05-08 21:08 51.02026 3.71599 38098 ft 459 kts 20°
2026-05-08 21:09 51.07827 3.75489 38102 ft 452 kts 22°
2026-05-08 21:09 51.13558 3.79797 38113 ft 456 kts 21°
2026-05-08 21:10 51.19348 3.83900 38110 ft 455 kts 21°
2026-05-08 21:10 51.25115 3.88136 38109 ft 455 kts 21°
2026-05-08 21:11 51.30847 3.92312 38110 ft 455 kts 21°
2026-05-08 21:11 51.36510 3.97004 38166 ft 461 kts 38°
2026-05-08 21:11 51.38593 4.00967 38173 ft 471 kts 59°
2026-05-08 21:12 51.39783 4.05910 38150 ft 483 kts 74°
2026-05-08 21:12 51.40845 4.16643 38141 ft 499 kts 82°
2026-05-08 21:13 51.41439 4.27866 38145 ft 506 kts 84°
2026-05-08 21:13 51.42460 4.44196 38135 ft 505 kts 78°
2026-05-08 21:14 51.44179 4.54979 38135 ft 502 kts 68°
2026-05-08 21:14 51.46975 4.65173 38136 ft 498 kts 58°
2026-05-08 21:15 51.50867 4.74331 38140 ft 493 kts 45°
2026-05-08 21:15 51.53301 4.78114 38007 ft 488 kts 38°
2026-05-08 21:15 51.55967 4.81558 37648 ft 486 kts 34°
2026-05-08 21:15 51.58637 4.84808 37334 ft 484 kts 34°
2026-05-08 21:16 51.61251 4.88266 37139 ft 486 kts 39°
2026-05-08 21:16 51.66589 4.96397 37134 ft 486 kts 38°
2026-05-08 21:17 51.71711 5.03523 37137 ft 486 kts 38°
2026-05-08 21:17 51.76653 5.10813 37140 ft 486 kts 39°
2026-05-08 21:18 51.83333 5.20430 37134 ft 486 kts 39°
2026-05-08 21:18 51.89705 5.29768 37135 ft 486 kts 39°
2026-05-08 21:19 51.94707 5.37057 37133 ft 487 kts 39°
2026-05-08 21:19 51.99721 5.44434 37149 ft 486 kts 39°
2026-05-08 21:20 52.04724 5.51788 37141 ft 486 kts 39°
2026-05-08 21:20 52.09741 5.59203 37144 ft 486 kts 39°
2026-05-08 21:21 52.14768 5.66646 37154 ft 486 kts 39°
2026-05-08 21:21 52.19686 5.73957 37149 ft 487 kts 39°
2026-05-08 21:22 52.24752 5.81509 37145 ft 487 kts 39°
2026-05-08 21:22 52.29748 5.88981 37142 ft 487 kts 39°
2026-05-08 21:23 52.31162 5.91102 37142 ft 487 kts 39°
2026-05-08 21:23 52.34591 5.96249 37152 ft 487 kts 39°
2026-05-08 21:24 52.39585 6.03765 37154 ft 487 kts 39°
2026-05-08 21:24 52.44572 6.11296 37154 ft 487 kts 40°
2026-05-08 21:25 52.47008 6.14983 37157 ft 487 kts 40°
2026-05-08 21:25 52.51993 6.22547 37160 ft 487 kts 40°
2026-05-08 21:26 52.53626 6.25030 37161 ft 487 kts 40°
2026-05-08 21:26 52.58602 6.32613 37160 ft 487 kts 40°
2026-05-08 21:27 52.63583 6.40227 37160 ft 489 kts 40°
2026-05-08 21:27 52.64376 6.41441 37160 ft 489 kts 40°
2026-05-08 21:28 52.65891 6.43764 37163 ft 489 kts 40°
2026-05-08 21:28 52.68006 6.47011 37163 ft 489 kts 40°
2026-05-08 21:29 52.69012 6.48556 37165 ft 489 kts 40°
2026-05-08 21:29 52.73988 6.56215 37170 ft 488 kts 40°
2026-05-08 21:30 52.76182 6.59601 37172 ft 488 kts 40°